Location: Olomouc
(49.5830°N, 17.2500°E)
Time: 20:17:46
(UTC+02:00)

ISS - Pass Details

Date: 11 May 2021
Orbit: 417 x 422 km, 51.6° (Epoch: 14 June)

Event Time Altitude Azimuth Distance (km) Brightness Sun altitude
Exits shadow 00:30:01 10° 76° (ENE) 1,483 -0.9 -22.4°
Drops below altitude 10° 00:30:04 10° 76° (ENE) 1,508 -0.8 -22.4°
Sets 00:32:13 0° 71° (ENE) 2,376 0.3 -22.5°
